(48963) = 1117 T-3 = 1998 QJ33

Discovered at Socorro on 1998-08-17 by LINEAR.

Orbit

Orbit type: Main Belt

Note: WebGL enabled browser required.

epoch2024-03-31.0
epoch JD2460400.5
perihelion date2023-08-23.42455
perihelion JD2460179.92455
argument of perihelion (°)65.19681
ascending node (°)303.89376
inclination (°)6.12437
eccentricity0.1322453
perihelion distance (AU)2.0132502
Tisserand w.r.t. Jupiter3.6
ΔV w.r.t. Earth (km/sec)9.0
semimajor axis (AU)2.3200682
mean anomaly (°)61.51909
mean daily motion (°/day)0.27890270
aphelion distance (AU)2.627
period (years)3.53
P-vector [x]0.98313932
P-vector [y]0.10378438
P-vector [z]0.15055190
Q-vector [x]-0.15998296
Q-vector [y]0.88693062
Q-vector [z]0.43331227
absolute magnitude15.13
phase slope0.15
uncertainty0
referenceMPEC 2024-E02
observations used2020
oppositions18
arc length (days)16945
first opposition used1977
last opposition used2024
residual rms (arc-secs)0.64
perturbers coarse indicatorM-v
perturbers precise indicator003Ek
first observation date used1977-10-07.0
last observation date used2024-02-28.0
computer nameMPCLINUX
JD of orbit computation2456819.623137
perihelion JD uncertainty (days)7.8219E-05
argument of perihelion uncertainty (°)4.3240E-05
ascending node uncertainty (°)3.7262E-05
inclination uncertainty (°)5.4658E-06
eccentricity uncertainty 4.5045E-08
perihelion distance uncertainty (AU)1.0485E-07
Minimum Orbit Intersection Distances (in AU)
for orbit epoch: 2460400.5, reference: E2024-E02
Mercury1.66033
Venus1.30014
Earth1.0208
Mars0.62403
Jupiter2.842
Saturn6.6976
Uranus15.8476
Neptune27.7619

Observations

2035 total observations over interval: 1977 10 07.24652 – 2024 02 28.252561
These data are available for download (format description).

Date (UT) J2000 RA J2000 Dec Magn Location Ref
1977 10 07.24652 01 05 10.35 +19 25 43.8   675 – Palomar Mountain MPS 2409
1977 10 11.26632 01 01 13.28 +19 09 19.5   675 – Palomar Mountain MPS 2409
1977 10 11.33351 01 01 09.15 +19 09 00.7   675 – Palomar Mountain MPS 2409
1977 10 12.26510 01 00 14.43 +19 04 42.6   675 – Palomar Mountain MPS 2409
1977 10 12.33125 01 00 10.30 +19 04 23.6   675 – Palomar Mountain MPS 2409
1977 10 16.25156 00 56 23.21 +18 44 26.9   675 – Palomar Mountain MPS 2409
1977 10 16.31684 00 56 19.23 +18 44 04.9   675 – Palomar Mountain MPS 2409
1977 10 17.25365 00 55 26.54 +18 38 59.0 17.8   675 – Palomar Mountain MPS 2409
1977 10 17.32083 00 55 22.48 +18 38 36.1   675 – Palomar Mountain MPS 2409
1977 10 22.42812 00 50 47.35 +18 08 35.0   675 – Palomar Mountain MPS 2409
1977 10 22.48003 00 50 44.71 +18 08 15.5   675 – Palomar Mountain MPS 2409
1998 08 17.35234 22 39 53.62 -02 22 16.8 17.8   704 – Lincoln Laboratory ETS, New Mexico MPS 2025
1998 08 17.37370 22 39 52.43 -02 22 17.0 18.0   704 – Lincoln Laboratory ETS, New Mexico MPS 2025
1998 08 17.39468 22 39 51.25 -02 22 17.3 18.3   704 – Lincoln Laboratory ETS, New Mexico MPS 2025
1998 08 17.41577 22 39 50.11 -02 22 17.6 18.1   704 – Lincoln Laboratory ETS, New Mexico MPS 2025
1998 08 17.43671 22 39 48.90 -02 22 17.7 18.1   704 – Lincoln Laboratory ETS, New Mexico MPS 2025
1998 08 23.34566 22 34 22.08 -02 25 33.9 17.9   704 – Lincoln Laboratory ETS, New Mexico MPS 2025
1998 08 23.35785 22 34 21.24 -02 25 34.5 18.2   704 – Lincoln Laboratory ETS, New Mexico MPS 2025
1998 08 23.37031 22 34 20.57 -02 25 34.4 18.0   704 – Lincoln Laboratory ETS, New Mexico MPS 2025
1998 08 23.38290 22 34 19.76 -02 25 34.9 18.0   704 – Lincoln Laboratory ETS, New Mexico MPS 2025
1998 08 23.39484 22 34 19.02 -02 25 35.7 18.1   704 – Lincoln Laboratory ETS, New Mexico MPS 2025
1998 09 14.14663 22 13 37.45 -03 08 02.6 17.7   704 – Lincoln Laboratory ETS, New Mexico MPS 2234
1998 09 14.16857 22 13 36.31 -03 08 05.5 17.7   704 – Lincoln Laboratory ETS, New Mexico MPS 2234
1998 09 14.19052 22 13 35.15 -03 08 08.4 17.7   704 – Lincoln Laboratory ETS, New Mexico MPS 2234
1998 09 14.21253 22 13 34.01 -03 08 11.3 17.7   704 – Lincoln Laboratory ETS, New Mexico MPS 2234
1998 09 15.31505 22 12 40.13 -03 10 49.8 16.9 R 699 – Lowell Observatory-LONEOS MPS 54316
1998 09 15.34461 22 12 38.64 -03 10 54.4   699 – Lowell Observatory-LONEOS MPS 54316
1998 09 15.36943 22 12 37.41 -03 10 57.8   699 – Lowell Observatory-LONEOS MPS 54316
1998 09 18.24799 22 10 25.81 -03 17 47.4 17.8   704 – Lincoln Laboratory ETS, New Mexico MPS 2234
1998 09 18.26089 22 10 25.30 -03 17 51.4 17.8   704 – Lincoln Laboratory ETS, New Mexico MPS 2234
1998 09 18.27379 22 10 24.67 -03 17 51.8 17.8   704 – Lincoln Laboratory ETS, New Mexico MPS 2234
1998 09 18.28663 22 10 24.00 -03 17 53.7 17.8   704 – Lincoln Laboratory ETS, New Mexico MPS 2234
1998 09 18.29947 22 10 23.47 -03 17 55.6 17.8   704 – Lincoln Laboratory ETS, New Mexico MPS 2234
1998 09 21.29087 22 08 20.96 -03 24 41.4 16.9 R 699 – Lowell Observatory-LONEOS MPS 51447
1998 09 21.31072 22 08 20.00 -03 24 45.5   699 – Lowell Observatory-LONEOS MPS 51447
1998 09 21.33058 22 08 19.20 -03 24 47.9   699 – Lowell Observatory-LONEOS MPS 51447
1998 12 09.06646 22 52 48.10 -00 10 27.8 19.1   704 – Lincoln Laboratory ETS, New Mexico MPS 3336
1998 12 09.08784 22 52 50.06 -00 10 16.9 19.7   704 – Lincoln Laboratory ETS, New Mexico MPS 3337
1998 12 09.09851 22 52 50.82 -00 10 10.4 19.2   704 – Lincoln Laboratory ETS, New Mexico MPS 3337
2000 02 02.32517 09 54 11.49 +09 32 51.2 17.8   704 – Lincoln Laboratory ETS, New Mexico MPS 9851
2000 02 02.33915 09 54 10.62 +09 32 53.0 18.2   704 – Lincoln Laboratory ETS, New Mexico MPS 9851
2000 02 02.35313 09 54 09.72 +09 32 55.5 18.0   704 – Lincoln Laboratory ETS, New Mexico MPS 9851
2000 02 02.36717 09 54 08.89 +09 32 57.7 18.2   704 – Lincoln Laboratory ETS, New Mexico MPS 9851
2000 02 02.38125 09 54 08.00 +09 32 59.9 18.3   704 – Lincoln Laboratory ETS, New Mexico MPS 9851
2000 02 04.30194 09 52 09.96 +09 37 57.6 18.9   704 – Lincoln Laboratory ETS, New Mexico MPS 9851
2000 02 04.31640 09 52 08.91 +09 38 01.3 18.5   704 – Lincoln Laboratory ETS, New Mexico MPS 9851
2000 02 04.33080 09 52 08.06 +09 38 03.9 18.8   704 – Lincoln Laboratory ETS, New Mexico MPS 9851
2000 02 04.34515 09 52 07.05 +09 38 05.5 19.3   704 – Lincoln Laboratory ETS, New Mexico MPS 9851
2000 02 12.30409 09 43 38.24 +10 01 16.0 17.4   704 – Lincoln Laboratory ETS, New Mexico MPS 9851
2000 02 12.31778 09 43 37.28 +10 01 18.5 17.9   704 – Lincoln Laboratory ETS, New Mexico MPS 9851
2000 02 12.33145 09 43 36.44 +10 01 20.8 17.2   704 – Lincoln Laboratory ETS, New Mexico MPS 9851
2000 02 12.34513 09 43 35.55 +10 01 23.6 17.6   704 – Lincoln Laboratory ETS, New Mexico MPS 9851
2000 02 12.35882 09 43 34.58 +10 01 26.6 17.3   704 – Lincoln Laboratory ETS, New Mexico MPS 9851
2000 03 03.12527 09 23 50.94 +11 00 59.6 18.6   704 – Lincoln Laboratory ETS, New Mexico MPS 10753
2000 03 03.13859 09 23 50.28 +11 01 01.6 19.4   704 – Lincoln Laboratory ETS, New Mexico MPS 10753
2000 03 03.15191 09 23 49.56 +11 01 03.7 18.5   704 – Lincoln Laboratory ETS, New Mexico MPS 10753
2000 03 03.16523 09 23 48.87 +11 01 06.3 18.6   704 – Lincoln Laboratory ETS, New Mexico MPS 10753
2000 03 03.17856 09 23 48.17 +11 01 07.7 18.1   704 – Lincoln Laboratory ETS, New Mexico MPS 10753
2000 03 05.24141 09 22 06.67 +11 06 27.6 18.7   704 – Lincoln Laboratory ETS, New Mexico MPS 10753
2000 03 05.25470 09 22 06.05 +11 06 29.0 19.3   704 – Lincoln Laboratory ETS, New Mexico MPS 10753
2000 03 05.26799 09 22 05.34 +11 06 31.2 18.6   704 – Lincoln Laboratory ETS, New Mexico MPS 10753
2000 03 05.28128 09 22 04.71 +11 06 34.1 18.9   704 – Lincoln Laboratory ETS, New Mexico MPS 10753
2000 03 05.29459 09 22 04.01 +11 06 35.3 18.3   704 – Lincoln Laboratory ETS, New Mexico MPS 10753
2002 09 06.40299 04 33 59.65 +29 11 16.6 19.7   704 – Lincoln Laboratory ETS, New Mexico MPS 60737
2002 09 06.41745 04 34 00.85 +29 11 21.2 20.1   704 – Lincoln Laboratory ETS, New Mexico MPS 60737
2002 09 06.43198 04 34 02.01 +29 11 25.8 20.2   704 – Lincoln Laboratory ETS, New Mexico MPS 60737
2002 09 06.44646 04 34 03.17 +29 11 30.5 19.6   704 – Lincoln Laboratory ETS, New Mexico MPS 60737
2002 09 06.46094 04 34 04.44 +29 11 34.8 20.1   704 – Lincoln Laboratory ETS, New Mexico MPS 60737
2002 10 04.40729 05 03 46.14 +31 06 32.5 18.6   704 – Lincoln Laboratory ETS, New Mexico MPS 62560
2002 10 04.42285 05 03 46.74 +31 06 35.6 18.9   704 – Lincoln Laboratory ETS, New Mexico MPS 62560
2002 10 04.43846 05 03 47.27 +31 06 38.5 19.1   704 – Lincoln Laboratory ETS, New Mexico MPS 62560
2002 10 04.45420 05 03 47.88 +31 06 42.0 18.8   704 – Lincoln Laboratory ETS, New Mexico MPS 62560
2002 10 04.46994 05 03 48.47 +31 06 44.1 18.8   704 – Lincoln Laboratory ETS, New Mexico MPS 62560
2002 10 10.33891 05 07 00.19 +31 24 39.2 18.3   704 – Lincoln Laboratory ETS, New Mexico MPS 62560
2002 10 10.35460 05 07 00.56 +31 24 42.9 18.9   704 – Lincoln Laboratory ETS, New Mexico MPS 62560
2002 10 10.37028 05 07 01.03 +31 24 45.5 18.9   704 – Lincoln Laboratory ETS, New Mexico MPS 62560
2002 10 10.38597 05 07 01.38 +31 24 48.3 18.5   704 – Lincoln Laboratory ETS, New Mexico MPS 62560
2002 10 10.40175 05 07 01.76 +31 24 51.4 18.3   704 – Lincoln Laboratory ETS, New Mexico MPS 62560
2002 10 12.41594 05 07 49.44 +31 30 29.3 18.8   704 – Lincoln Laboratory ETS, New Mexico MPS 62560
2002 10 12.43215 05 07 49.76 +31 30 31.7 19.0   704 – Lincoln Laboratory ETS, New Mexico MPS 62560
2002 10 12.44854 05 07 50.10 +31 30 34.4 18.7   704 – Lincoln Laboratory ETS, New Mexico MPS 62560
2002 10 12.46476 05 07 50.42 +31 30 37.4 18.6   704 – Lincoln Laboratory ETS, New Mexico MPS 62560
2002 10 12.48114 05 07 50.72 +31 30 39.8 19.2   704 – Lincoln Laboratory ETS, New Mexico MPS 62560
2002 11 01.33787 05 06 53.33 +32 07 47.9 18.3   704 – Lincoln Laboratory ETS, New Mexico MPS 65330
2002 11 01.35464 05 06 52.84 +32 07 48.5 18.3   704 – Lincoln Laboratory ETS, New Mexico MPS 65330
2002 11 01.37256 05 06 52.24 +32 07 48.9 18.4   704 – Lincoln Laboratory ETS, New Mexico MPS 65330
